Flag for Egypt Weather past 2 weeks in Port Said, Egypt

Now
70 °F

Sunny.


Feels Like: 70 °F
Forecast: 64 / 71 °F
Wind: 7 mph from East

Location: Port Said Airport

Current Time: Mar 27, 2015 at 8:01:39 PM

Latest Report: Mar 27, 2015 at 6:00 PM


Visibility: 10 mi

Pressure: 29.71 "Hg

Humidity: 73%

Dew point: 61 °F

Location of Port SaidLocation

Historic Weather in Port Said — Graph

°F

Port Said temperature yesterday

Maximum temperature yesterday: 70 °F (at 1:00 PM)
Minimum temperature yesterday: 61 °F (at 2:00 AM)
Average temperature yesterday: 64 °F

Past Weeks' High & Low Weather Summary

 TemperatureHumidityPressure
High73 °F (Mar 27, 2:00 PM)100% (Mar 13, 9:00 AM)30.21 "Hg (Mar 13, 9:00 AM)
Low52 °F (Mar 13, 9:00 AM)21% (Mar 20, 3:00 AM)29.71 "Hg (Mar 27, 3:00 PM)
Average63 °F71%30.06 "Hg
* Reported Mar 12 6:00 PM — Mar 27 6:00 PM, Port Said, Weather by CustomWeather, © 2015

Note: Actual official high and low records may vary slightly from our data, if they occured in-between our weather recording intervals... More about our weather records

Advertising

Port Said weather history for previous 24 hours

 ConditionsComfort  
Time TempWeatherWind HumidityBarometerVisibility
6:00 PM
Fri, Mar 27
70 °FSunny.7 mph73%29.71 "Hg10 mi
5:00 PM72 °FSunny.7 mph69%29.71 "Hg10 mi
4:00 PM70 °FSunny.12 mph73%29.71 "Hg10 mi
3:00 PM72 °FSunny.13 mph69%29.71 "Hg10 mi
2:00 PM73 °FSunny.13 mph69%29.74 "Hg10 mi
1:00 PM72 °FSunny.9 mph73%29.77 "Hg10 mi
12:00 PM72 °FSunny.9 mph78%29.83 "Hg10 mi
11:00 AM72 °FSunny.10 mph73%29.86 "Hg10 mi
10:00 AM70 °FSunny.12 mph83%29.86 "Hg10 mi
9:00 AM68 °FSunny.12 mph83%29.86 "Hg10 mi
8:00 AM66 °FSunny.15 mph88%29.86 "Hg10 mi
7:00 AM64 °FSunny.14 mph83%29.86 "Hg10 mi
6:00 AM63 °FSunny.9 mph83%29.86 "Hg10 mi
5:00 AM61 °FClear.12 mph88%29.86 "Hg10 mi
4:00 AM61 °FClear.10 mph88%29.95 "Hg10 mi
3:00 AM61 °FClear.9 mph88%29.98 "Hg10 mi
2:00 AM61 °FClear.13 mph94%30.04 "Hg10 mi
1:00 AM61 °FClear.12 mph88%29.98 "Hg10 mi
12:00 AM63 °FClear.12 mph83%29.98 "Hg10 mi
11:00 PM
Thu, Mar 26
63 °FClear.13 mph68%29.98 "Hg10 mi
10:00 PM63 °FClear.12 mph83%30.01 "Hg10 mi
9:00 PM63 °FClear.14 mph83%30.01 "Hg10 mi
8:00 PM63 °FClear.12 mph83%30.01 "Hg10 mi
Weather by CustomWeather, © 2015

See weather overviewHow to use our weather pages